| time (UTC) | temp C | wind direction | speed KPH | gust KPH | rain 1hr cm | rain 24hr cm | rain mn cm | humidity % | barometer mb |
| 20260904160111 | 20 | 17 | 3.2 | 12.9 | 0.00 | 0.00 | 0.00 | 40 | 1021.5 |
| 20260904150605 | 18 | 183 | 1.6 | 9.7 | 0.00 | 0.00 | 0.00 | 44 | 1021.3 |
| 20260904150112 | 18 | 221 | 3.2 | 11.3 | 0.00 | 0.00 | 0.00 | 44 | 1021.3 |
| 20260904140606 | 12 | 219 | 0.0 | 4.8 | 0.00 | 0.00 | 0.00 | 60 | 1021.7 |
| 20260904140111 | 12 | 178 | 0.0 | 3.2 | 0.00 | 0.00 | 0.00 | 61 | 1021.6 |
| 20260904130606 | 10 | 198 | 0.0 | 0.0 | 0.00 | 0.00 | 0.00 | 64 | 1021.1 |
| 20260904120606 | 11 | 198 | 0.0 | 0.0 | 0.00 | 0.00 | 0.00 | 57 | 1020.4 |
| 20260904120111 | 11 | 197 | 0.0 | 0.0 | 0.00 | 0.00 | 0.00 | 57 | 1020.4 |
| 20260904110111 | 12 | 195 | 0.0 | 0.0 | 0.00 | 0.00 | 0.00 | 52 | 1019.9 |
| 20260904100605 | 11 | 218 | 0.0 | 1.6 | 0.00 | 0.00 | 0.00 | 54 | 1019.4 |
| 20260904100111 | 11 | 219 | 0.0 | 0.0 | 0.00 | 0.00 | 0.00 | 53 | 1019.3 |
| 20260904090605 | 12 | 222 | 0.0 | 1.6 | 0.00 | 0.00 | 0.00 | 47 | 1018.9 |
| 20260904090111 | 12 | 35 | 0.0 | 1.6 | 0.00 | 0.00 | 0.00 | 46 | 1018.9 |
| 20260904080605 | 11 | 39 | 0.0 | 0.0 | 0.00 | 0.00 | 0.00 | 48 | 1018.8 |
| 20260904080111 | 12 | 47 | 0.0 | 0.0 | 0.00 | 0.00 | 0.00 | 48 | 1018.9 |
| 20260904070605 | 12 | 41 | 0.0 | 3.2 | 0.00 | 0.00 | 0.00 | 49 | 1018.8 |
| 20260904060605 | 12 | 36 | 0.0 | 0.0 | 0.00 | 0.00 | 0.00 | 45 | 1018.7 |
| 20260904060113 | 12 | 40 | 0.0 | 0.0 | 0.00 | 0.00 | 0.00 | 45 | 1018.7 |
| 20260904050607 | 15 | 24 | 0.0 | 0.0 | 0.00 | 0.00 | 0.00 | 37 | 1018.7 |
| 20260904040112 | 15 | 22 | 0.0 | 1.6 | 0.00 | 0.00 | 0.00 | 33 | 1019.0 |
| 20260904030607 | 16 | 27 | 0.0 | 0.0 | 0.00 | 0.00 | 0.00 | 31 | 1018.9 |
| 20260904030112 | 16 | 27 | 0.0 | 0.0 | 0.00 | 0.00 | 0.00 | 31 | 1018.9 |
| 20260904020606 | 19 | 17 | 0.0 | 0.0 | 0.00 | 0.00 | 0.00 | 22 | 1018.5 |
| 20260904020114 | 19 | 17 | 0.0 | 0.0 | 0.00 | 0.00 | 0.00 | 21 | 1018.5 |
| 20260904010113 | 23 | 13 | 1.6 | 12.9 | 0.00 | 0.00 | 0.00 | 14 | 1018.8 |
| 20260904000607 | 25 | 183 | 1.6 | 14.5 | 0.00 | 0.00 | 0.00 | 13 | 1018.9 |
| 20260904000113 | 25 | 198 | 1.6 | 12.9 | 0.00 | 0.00 | 0.00 | 13 | 1018.9 |
| 20260903230606 | 25 | 191 | 4.8 | 14.5 | 0.00 | 0.00 | 0.00 | 14 | 1019.2 |
| 20260903230113 | 25 | 208 | 3.2 | 14.5 | 0.00 | 0.00 | 0.00 | 14 | 1019.1 |
| 20260903210606 | 25 | 22 | 3.2 | 16.1 | 0.00 | 0.00 | 0.00 | 17 | 1020.1 |
| 20260903210112 | 25 | 24 | 1.6 | 9.7 | 0.00 | 0.00 | 0.00 | 18 | 1020.1 |
| 20260903200607 | 24 | 18 | 1.6 | 16.1 | 0.00 | 0.00 | 0.00 | 18 | 1020.6 |
| 20260903200113 | 24 | 17 | 4.8 | 16.1 | 0.00 | 0.00 | 0.00 | 18 | 1020.7 |
| 20260903190113 | 23 | 14 | 3.2 | 14.5 | 0.00 | 0.00 | 0.00 | 20 | 1021.2 |
| 20260903170607 | 21 | 14 | 3.2 | 12.9 | 0.00 | 0.00 | 0.00 | 29 | 1022.1 |
| 20260903170112 | 21 | 13 | 4.8 | 16.1 | 0.00 | 0.00 | 0.00 | 27 | 1022.1 |
| 20260903160607 | 18 | 14 | 3.2 | 19.3 | 0.00 | 0.00 | 0.00 | 34 | 1022.0 |